7 * 24
多渠道服务支持
STARLINK-3119是美国SpaceX公司星链(Starlink)星座的组网卫星,于2021年9月14日发射升空。作为低轨宽带通信卫星,它隶属于SpaceX打造的全球卫星互联网项目,采用平板设计与霍尔推进技术,具备自主避撞能力,旨在为全球尤其是偏远区域提供高速稳定的宽带互联网接入服务,是星链大规模低轨星座部署中的组成单元,服役寿命约5至7年,退役后会主动离轨再入大气层焚毁。
美国
(US)
| 数据来源 | 国际轨道数据 |
| 星历时间: | 2026-09-05T02:25:48+0800 11小时前 查看轨道信息 |
| 半长轴: | 6950.162km |
| 偏心率: | 0.0003025 |
| 轨道倾角: | 70.000° |
| 近地点辐角 | 271.580° |
| 升交点赤经 | 162.920° |
| 平近点角 | 88.501° |
| 近地点: | 569.922km |
| 远地点: | 574.128km |
| 周期: | 96.106分钟 |
| 每日圈数: | 14.983403 |
| 事件ID | 空间交会对象 | 最接近时刻(TCA) | 交会距离 | 交会风险概率(CRP) | 交会风险指数(CRI) | 操作 |
|---|---|---|---|---|---|---|
| CDM_260907-030704-914506-054621 |
STARLINK-3119
(49145)
ICEYE-X39
(60546) | 2026-09-07T 03:07:16+0000 |
1.032 km
极远距离 | 2.459984E-5 中风险 | 0.63 | |
| CDM_260906-212904-914506-054921 |
STARLINK-3119
(49145)
ICEYE-X40
(60549) | 2026-09-06T 21:29:43+0000 |
2.418 km
极远距离 | 1.880871E-6 低风险 | 0.4 |